Weather History for KO69 - April, 2014

Change the Weather History Date:

Saturday, April 5, 2014

  Actual Average (KAPC) Record (KAPC)
Temperature  
Mean Temperature 52 °F 54 °F  
Max Temperature 64 °F 67 °F 74 °F (2009)
Min Temperature 41 °F 41 °F 31 °F (2003)
Degree Days  
Heating Degree Days 12    
Month to date heating degree days  
Since 1 July heating degree days  
Cooling Degree Days 0    
Month to date cooling degree days  
Year to date cooling degree days  
Growing Degree Days 2 (Base 50)    
Moisture  
Dew Point 47 °F    
Average Humidity 84    
Maximum Humidity 100    
Minimum Humidity 56    
Precipitation  
Precipitation 0.00 in - 1.55 in (1926)
Month to date precipitation  
Year to date precipitation  
Sea Level Pressure  
Sea Level Pressure 30.15 in    
Wind  
Wind Speed 6 mph (WNW)    
Max Wind Speed 15 mph    
Max Gust Speed 21 mph    
Visibility 10 miles    
Events      
T = Trace of Precipitation, MM = Missing Value Source: NWS Daily Summary

Daily Weather History Graph

Daily Weather History Graph

Search for Another Location

Airport or City:

Trip Planner

Search our weather history database for the weather conditions in past years. The results will help you decide how hot, cold, wet, or windy it might be!

Date:

Astronomy

Apr. 05, 2014 Rise Set
Actual Time 6:49 AM PDT 7:37 PM PDT
Civil Twilight 6:22 AM PDT 8:04 PM PDT
Nautical Twilight 5:50 AM PDT 8:36 PM PDT
Astronomical Twilight 5:18 AM PDT 9:08 PM PDT
Moon 11:04 AM PDT (4/5) 12:48 AM PDT (4/5)
Length of Visible Light 13h 41m
Length of Day
12h 48m
Waxing Crescent, 35% of the Moon is Illuminated
Apr 5
Waxing Crescent
Apr 7
First Quarter
Apr 15
Full
Apr 22
Last Quarter
Apr 28
New

Hourly Weather History & Observations

Time (PDT) Temp. Windchill Dew Point Humidity Pressure Visibility Wind Dir Wind Speed Gust Speed Precip Events Conditions
12:15 AM 46.4 °F - 46.4 °F 100% 30.08 in 10.0 mi Calm Calm - N/A   Mostly Cloudy
12:35 AM 46.4 °F 45.2 °F 46.4 °F 100% 30.08 in 10.0 mi NW 3.5 mph - N/A   Scattered Clouds
12:55 AM 46.4 °F - 46.4 °F 100% 30.09 in 10.0 mi Calm Calm - N/A   Partly Cloudy
1:15 AM 46.4 °F 44.3 °F 46.4 °F 100% 30.08 in 10.0 mi NW 4.6 mph - N/A   Clear
1:35 AM 46.4 °F 43.5 °F 46.4 °F 100% 30.09 in 10.0 mi WNW 5.8 mph - N/A   Clear
1:55 AM 44.6 °F 40.2 °F 44.6 °F 100% 30.09 in 10.0 mi WNW 8.1 mph - N/A   Clear
2:15 AM 46.4 °F 44.3 °F 46.4 °F 100% 30.09 in 10.0 mi West 4.6 mph - N/A   Clear
2:35 AM 46.4 °F 43.5 °F 46.4 °F 100% 30.08 in 10.0 mi West 5.8 mph - N/A   Clear
2:55 AM 44.6 °F 41.4 °F 44.6 °F 100% 30.08 in 10.0 mi West 5.8 mph - N/A   Clear
3:15 AM 44.6 °F 41.4 °F 44.6 °F 100% 30.09 in 10.0 mi West 5.8 mph - N/A   Clear
3:35 AM 44.6 °F 41.4 °F 44.6 °F 100% 30.08 in 10.0 mi WNW 5.8 mph - N/A   Clear
3:55 AM 44.6 °F 40.7 °F 44.6 °F 100% 30.09 in 10.0 mi WNW 6.9 mph - N/A   Clear
4:15 AM 44.6 °F 40.7 °F 44.6 °F 100% 30.09 in 10.0 mi WNW 6.9 mph - N/A   Clear
4:35 AM 44.6 °F 41.4 °F 44.6 °F 100% 30.09 in 10.0 mi WNW 5.8 mph - N/A   Clear
4:55 AM 42.8 °F 38.6 °F 42.8 °F 100% 30.09 in 10.0 mi WNW 6.9 mph - N/A   Clear
5:15 AM 42.8 °F 40.1 °F 42.8 °F 100% 30.09 in 10.0 mi West 4.6 mph - N/A   Clear
5:35 AM 42.8 °F 40.1 °F 42.8 °F 100% 30.09 in 10.0 mi West 4.6 mph - N/A   Clear
5:55 AM 42.8 °F 40.1 °F 42.8 °F 100% 30.10 in 10.0 mi WSW 4.6 mph - N/A   Clear
6:15 AM 42.8 °F 39.3 °F 42.8 °F 100% 30.11 in 10.0 mi West 5.8 mph - N/A   Clear
6:35 AM 41.0 °F 37.1 °F 41.0 °F 100% 30.12 in 10.0 mi West 5.8 mph - N/A   Clear
6:55 AM 41.0 °F 39.0 °F 41.0 °F 100% 30.12 in 10.0 mi WNW 3.5 mph - N/A   Clear
7:15 AM 41.0 °F 37.1 °F 41.0 °F 100% 30.13 in 10.0 mi WNW 5.8 mph - N/A   Clear
7:35 AM 42.8 °F 39.3 °F 42.8 °F 100% 30.13 in 10.0 mi West 5.8 mph - N/A   Clear
7:55 AM 44.6 °F 40.7 °F 44.6 °F 100% 30.14 in 10.0 mi West 6.9 mph - N/A   Clear
8:15 AM 46.4 °F 42.9 °F 46.4 °F 100% 30.15 in 10.0 mi West 6.9 mph - N/A   Clear
8:35 AM 48.2 °F - 48.2 °F 100% 30.15 in 10.0 mi West 6.9 mph - N/A   Clear
8:55 AM 50.0 °F - 48.2 °F 94% 30.16 in 10.0 mi WNW 8.1 mph - N/A   Clear
9:15 AM 50.0 °F - 48.2 °F 94% 30.16 in 10.0 mi West 9.2 mph - N/A   Clear
9:35 AM 51.8 °F - 48.2 °F 88% 30.17 in 10.0 mi WNW 11.5 mph - N/A   Clear
9:55 AM 53.6 °F - 46.4 °F 77% 30.17 in 10.0 mi WNW 12.7 mph - N/A   Clear
10:15 AM 53.6 °F - 48.2 °F 82% 30.18 in 10.0 mi WNW 10.4 mph - N/A   Clear
10:35 AM 55.4 °F - 48.2 °F 77% 30.18 in 10.0 mi NW 5.8 mph - N/A   Clear
10:55 AM 55.4 °F - 48.2 °F 77% 30.18 in 10.0 mi WNW 10.4 mph - N/A   Clear
11:15 AM 57.2 °F - 46.4 °F 67% 30.18 in 10.0 mi WNW 8.1 mph - N/A   Clear
11:35 AM 57.2 °F - 46.4 °F 67% 30.18 in 10.0 mi WNW 10.4 mph - N/A   Clear
11:55 AM 59.0 °F - 46.4 °F 63% 30.18 in 10.0 mi NNW 6.9 mph - N/A   Clear
12:15 PM 59.0 °F - 46.4 °F 63% 30.18 in 10.0 mi NW 5.8 mph 17.3 mph N/A   Clear
12:35 PM 60.8 °F - 48.2 °F 63% 30.18 in 10.0 mi NW 6.9 mph - N/A   Clear
12:55 PM 62.6 °F - 48.2 °F 59% 30.17 in 10.0 mi WNW 8.1 mph - N/A   Clear
1:15 PM 62.6 °F - 50.0 °F 63% 30.17 in 10.0 mi West 6.9 mph - N/A   Clear
1:35 PM 62.6 °F - 50.0 °F 63% 30.17 in 10.0 mi West 10.4 mph 16.1 mph N/A   Clear
1:55 PM 64.4 °F - 50.0 °F 59% 30.17 in 10.0 mi West 9.2 mph 17.3 mph N/A   Clear
2:15 PM 64.4 °F - 50.0 °F 59% 30.16 in 10.0 mi WSW 11.5 mph - N/A   Clear
2:35 PM 64.4 °F - 48.2 °F 56% 30.15 in 10.0 mi WSW 12.7 mph - N/A   Clear
2:55 PM 64.4 °F - 50.0 °F 59% 30.15 in 10.0 mi West 13.8 mph 19.6 mph N/A   Clear
3:15 PM 64.4 °F - 50.0 °F 59% 30.15 in 10.0 mi West 12.7 mph - N/A   Clear
3:35 PM 64.4 °F - 50.0 °F 59% 30.15 in 10.0 mi West 11.5 mph - N/A   Clear
3:55 PM 62.6 °F - 48.2 °F 59% 30.15 in 10.0 mi West 12.7 mph 20.7 mph N/A   Clear
4:15 PM 64.4 °F - 48.2 °F 56% 30.15 in 10.0 mi West 12.7 mph 19.6 mph N/A   Clear
4:35 PM 64.4 °F - 48.2 °F 56% 30.15 in 10.0 mi West 15.0 mph 18.4 mph N/A   Clear
4:55 PM 62.6 °F - 48.2 °F 59% 30.16 in 10.0 mi West 13.8 mph 18.4 mph N/A   Clear
5:15 PM 62.6 °F - 48.2 °F 59% 30.16 in 10.0 mi WNW 10.4 mph - N/A   Clear
5:35 PM 62.6 °F - 48.2 °F 59% 30.16 in 10.0 mi West 11.5 mph - N/A   Clear
5:55 PM 62.6 °F - 48.2 °F 59% 30.16 in 10.0 mi WNW 10.4 mph 16.1 mph N/A   Clear
6:15 PM 60.8 °F - 48.2 °F 63% 30.15 in 10.0 mi West 8.1 mph - N/A   Clear
6:35 PM 60.8 °F - 48.2 °F 63% 30.15 in 10.0 mi West 11.5 mph - N/A   Clear
6:55 PM 59.0 °F - 48.2 °F 67% 30.16 in 10.0 mi West 9.2 mph - N/A   Clear
7:15 PM 57.2 °F - 48.2 °F 72% 30.16 in 10.0 mi WNW 9.2 mph - N/A   Clear
7:35 PM 55.4 °F - 48.2 °F 77% 30.16 in 10.0 mi West 11.5 mph - N/A   Clear
7:55 PM 53.6 °F - 48.2 °F 82% 30.17 in 10.0 mi West 10.4 mph - N/A   Clear
8:15 PM 53.6 °F - 48.2 °F 82% 30.17 in 10.0 mi West 8.1 mph - N/A   Scattered Clouds
8:35 PM 53.6 °F - 48.2 °F 82% 30.18 in 10.0 mi West 5.8 mph - N/A   Overcast
8:55 PM 51.8 °F - 50.0 °F 94% 30.18 in 10.0 mi WNW 5.8 mph - N/A   Overcast
9:15 PM 51.8 °F - 50.0 °F 94% 30.19 in 10.0 mi West 6.9 mph - N/A   Overcast
9:35 PM 50.0 °F - 50.0 °F 100% 30.19 in 10.0 mi NW 3.5 mph - N/A   Overcast
9:55 PM 50.0 °F - 50.0 °F 100% 30.20 in 10.0 mi WNW 5.8 mph - N/A   Mostly Cloudy
10:15 PM 50.0 °F - 50.0 °F 100% 30.20 in 10.0 mi NW 3.5 mph - N/A   Mostly Cloudy
10:35 PM 50.0 °F - 50.0 °F 100% 30.20 in 10.0 mi NW 4.6 mph - N/A   Mostly Cloudy
10:55 PM 48.2 °F - 48.2 °F 100% 30.20 in 10.0 mi WNW 3.5 mph - N/A   Overcast
11:15 PM 48.2 °F - 48.2 °F 100% 30.20 in 10.0 mi NW 3.5 mph - N/A   Overcast
11:35 PM 50.0 °F - 50.0 °F 100% 30.21 in 10.0 mi NW 4.6 mph - N/A   Mostly Cloudy
11:55 PM 50.0 °F - 50.0 °F 100% 30.21 in 10.0 mi WNW 6.9 mph - N/A   Scattered Clouds